SCP
0 0 0 0 0 0 0 0 0 0 0 0 0 0 0 0 0 0 0 0 0 0 0 0 0 0 0 0 0 0 0 0 0 0 0 0 0 0 0 0 0 0 0
0 0 0 0 0 0 0 0 0 0 0 0 0 0 0 0 0 0 0 0 0 0 0 0 0 0 0 0 0 0 0 0 0 0 0 0 0 0 0 0 0 0 0
0 0 0 0 0 -0 -0 0 0 0 0 0 0 0 0 0 0 0 0 0 0 0 0 0 0 0 0 0 0 0 0 0 0 0 0 0 0 0 0 0 0 0 0
0 0 0 0 -0 -0 0 0 0 0 0 0 0 0 0 0 0 0 0 0 0 0 0 0 0 0 0 0 0 0 0 0 0 0 0 0 0 0 0 0 0 0 0
0 0 0 0 -0 -0 0 0 0 0 0 0 0 0 0 0 0 0 0 0 0 0 0 0 0 0 0 0 0 0 0 0 0 0 0 0 0 0 0 0 0 0 0
0 0 0 -0 -0 0 0 0 0 0 0 0 0 0 0 0 0 0 0 0 0 0 0 0 0 0 0 0 0 0 0 0 0 0 0 0 0 0 0 0 0 0 0
0 0 -0 -0 -0 0 0 0 0 0 0 0 0 0 0 0 0 0 0 0 0 0 0 0 0 0 0 0 0 0 0 0 0 0 0 0 0 0 0 0 0 0 0
0 0 0 0 0 0 0 0 0 0 0 0 0 0 0 0 0 0 0 0 0 0 0 0 0 0 0 0 0 0 0 0 0 0 0 0 0 0 0 0 0 0 0
0 0 0 0 0 0 0 0 0 0 0 0 0 0 0 0 0 0 0 0 0 0 0 0 0 0 0 0 0 0 0 0 0 0 0 0 0 0 0 0 0 0 0
0 0 0 0 0 0 0 0 0 0 0 0 0 0 0 0 0 0 0 0 0 0 0 0 0 0 0 0 0 0 0 0 0 0 0 0 0 0 0 0 0 0 0
0 0 0 0 0 0 0 0 0 0 0 0 0 0 0 0 0 0 0 0 0 0 0 0 0 0 0 0 0 0 0 0 0 0 0 0 0 0 0 0 0 0 0
0 0 0 0 0 0 0 0 0 0 0 0 0 0 0 0 0 0 0 0 0 0 0 0 0 0 0 0 0 0 0 0 0 0 0 0 0 0 0 0 0 0 0
0 0 0 0 0 0 0 0 0 0 0 0 0 0 0 0 0 0 0 0 0 0 0 0 0 0 0 0 0 0 0 0 0 0 0 0 0 0 0 0 0 0 0
0 0 0 0 0 0 0 0 0 0 0 -0 -0 0 0 0 0 0 0 0 0 0 0 0 0 0 0 0 0 0 0 0 0 0 0 0 0 0 0 0 0 0 0
0 0 0 0 0 0 -0 -0 0 0 0 -0 -0 -0 0 -0 0 -0 0 0 0 0 0 0 0 0 0 0 0 0 0 0 0 0 0 0 0 0 0 0 0 0 0
0 0 0 0 0 0 -0 -0 0 0 0 -0 -0 -0 0 -0 0 -0 0 0 0 0 0 0 0 0 0 0 0 0 0 0 0 0 0 0 0 0 0 0 0 0 0
0 0 0 0 0 0 0 0 -0 0 0 -0 -0 -0 0 0 -0 0 0 0 0 0 0 0 0 0 0 0 0 0 0 0 0 0 0 0 0 0 0 0 0 0 0
0 0 0 0 0 -0 0 0 0 0 0 0 -0 -0 -0 0 0 0 0 0 0 0 0 0 0 0 0 0 0 0 0 0 0 0 0 0 0 0 0 0 0 0 0
0 0 0 0 0 -0 0 0 -0 0 0 0 -0 0 -0 0 -0 0 -0 0 0 0 0 0 0 0 0 0 0 0 0 0 0 0 0 0 0 0 0 0 0 0 0
0 0 0 0 0 -0 0 0 0 -0 0 0 0 0 -0 -0 0 0 -0 0 0 0 0 0 0 0 0 0 0 0 0 0 0 0 0 0 0 0 0 0 0 0 0
0 0 0 -0 0 -0 0 -0 -0 -0 0 0 0 0 -0 0 0 0 0 -0 0 0 0 0 0 0 0 0 -0 0 0 0 0 0 0 0 0 0 0 0 0 0 0
0 0 0 0 0 0 -0 -0 -0 0 0 -0 -0 0 0 0 0 0 0 0 0 0 0 0 0 0 0 0 0 0 0 0 0 0 0 0 0 0 0 0 0 0 0
0 0 0 0 0 -0 0 -0 -0 0 0 -0 -0 -0 -0 0 0 0 0 0 0 0 0 0 0 0 0 0 -0 0 0 0 0 0 0 0 0 0 0 0 0 0 0
0 0 0 0 0 0 0 -0 0 -0 -0 -0 0 0 0 -0 0 0 0 0 0 0 0 0 0 0 0 0 0 0 0 0 0 0 0 0 0 0 0 0 0 0 0
0 0 0 0 -0 0 0 0 0 -0 -0 -0 -0 0 0 0 0 0 0 0 0 0 0 0 0 0 0 0 0 0 0 0 0 0 0 0 0 0 0 0 0 0 0
0 0 0 0 -0 -0 -0 0 0 0 -0 0 0 0 0 0 0 0 0 0 0 -0 0 0 0 0 0 -0 0 0 0 0 0 0 0 0 0 0 0 0 0 0 0
Wind_Speed_500mb
10 25 37 44 45 44 44 35 33 35 43 44 46 42 50 50 78 75 88 74 52 52 56 54 57 62 62 62 60 59 63 61 58 60 47 37 28 25 23 20 19 19 19
18 26 32 47 57 61 64 41 32 34 46 50 53 46 49 57 73 70 79 76 75 67 58 50 54 59 61 61 61 63 69 65 63 63 55 33 29 25 26 28 26 24 20
22 30 32 45 57 68 58 32 35 30 47 59 55 46 55 68 66 73 75 77 78 75 64 52 48 54 60 65 64 65 71 73 66 58 36 24 18 36 27 25 23 21 21
30 27 35 46 62 67 44 35 33 34 49 57 56 57 56 67 62 80 84 81 75 73 71 63 58 53 57 63 65 64 64 66 68 63 43 26 24 30 29 35 30 25 23
30 34 40 49 62 50 42 37 33 40 47 55 56 57 54 66 68 80 83 84 80 77 69 61 57 53 59 66 66 63 59 59 60 61 52 31 27 25 22 38 44 35 26
35 32 37 51 57 40 38 35 32 36 45 47 57 51 54 65 74 85 89 87 87 84 84 83 72 67 65 63 62 57 56 55 52 55 45 34 36 34 27 21 42 32 30
36 33 45 48 51 48 36 32 28 24 31 39 57 52 55 59 64 80 86 83 78 78 76 74 72 65 59 53 52 53 53 51 54 51 48 35 29 28 30 22 35 33 28
29 37 46 43 44 45 33 27 22 18 22 38 42 44 58 49 65 77 85 83 86 91 84 73 64 59 51 46 47 50 48 48 51 51 44 40 34 29 21 21 24 24 25
31 42 42 38 40 39 34 30 18 18 23 33 40 43 50 65 69 74 81 81 87 89 76 67 62 59 55 53 54 53 53 50 49 47 39 33 28 25 23 21 20 17 18
34 37 38 36 36 34 31 27 19 17 20 23 31 39 45 59 61 72 81 78 79 80 71 68 63 63 62 62 58 53 49 48 46 41 37 34 28 23 20 17 14 15 13
28 38 41 36 34 33 29 21 23 19 20 20 22 36 56 62 64 70 77 80 80 73 68 66 64 61 61 57 56 54 50 48 46 39 31 28 23 18 13 14 14 7 7
33 35 34 38 37 36 24 20 15 18 19 22 26 36 44 54 62 62 78 78 79 77 71 67 62 62 60 56 56 57 52 46 41 37 32 26 19 14 13 10 4 7 11
29 33 35 42 46 40 26 16 13 12 18 25 29 38 45 47 62 74 71 70 73 70 67 65 64 60 53 53 53 50 49 43 35 27 24 18 17 15 10 8 8 6 12
22 30 35 44 49 41 26 14 9 10 13 18 30 36 44 62 70 65 62 68 67 63 61 58 54 55 59 58 54 48 39 32 29 22 21 21 15 11 7 6 5 9 13
21 31 41 46 52 40 22 12 8 12 12 24 27 43 56 63 58 63 65 62 66 70 64 61 59 60 57 50 40 35 28 24 24 27 20 16 12 5 3 7 9 12 14
17 31 40 43 48 40 23 12 8 8 14 18 42 49 64 64 56 59 59 64 58 59 61 59 59 58 49 40 38 34 34 32 25 21 19 15 9 6 6 8 10 12 12
13 25 39 39 43 37 23 11 6 16 14 24 42 51 62 68 66 63 52 44 46 49 60 61 55 49 47 43 41 36 31 28 25 19 13 9 7 3 4 9 11 14 19
18 29 36 35 41 36 16 7 9 21 19 25 38 53 61 66 81 61 64 54 54 58 57 57 51 48 48 43 38 34 29 25 21 17 13 7 1 2 7 10 10 12 15
20 25 29 33 42 28 15 6 2 9 33 35 41 50 57 73 75 57 57 69 67 68 68 57 56 51 49 41 34 30 27 23 19 13 6 3 3 3 7 9 11 13 15
21 19 25 34 35 23 16 10 4 12 29 36 42 49 58 67 75 72 78 60 68 77 68 61 50 47 44 37 30 28 24 19 15 12 7 0 5 8 10 12 13 13 13
18 16 18 25 29 23 17 8 8 17 22 31 37 43 50 61 71 78 79 78 80 63 62 59 53 44 38 36 30 26 20 15 10 6 2 3 6 10 12 11 11 16 18
14 13 12 17 20 20 20 15 11 17 23 29 39 55 66 63 58 77 85 77 66 67 62 57 51 43 38 32 27 20 15 10 5 2 1 4 9 10 11 13 16 18 15
17 14 8 8 12 12 21 22 16 19 24 32 42 54 56 69 80 75 70 67 61 64 61 56 50 44 35 28 22 16 11 6 2 1 4 7 8 10 12 15 16 17 21
17 19 9 7 3 8 12 17 27 24 29 36 47 60 70 71 63 64 66 64 58 54 50 47 43 38 34 27 21 15 10 7 4 2 4 8 11 13 15 17 19 20 20
22 19 12 12 14 14 13 19 22 32 49 56 55 51 52 59 64 61 59 54 47 38 35 35 32 31 30 25 18 10 5 2 2 6 8 9 10 14 17 18 19 20 22
27 22 18 15 22 23 21 22 30 32 34 42 44 47 53 57 57 55 50 37 31 31 28 27 25 27 21 17 14 11 5 2 6 8 9 11 14 15 18 21 21 18 17
Wind_Direction_500mb
316 308 316 315 317 316 302 287 294 248 249 238 233 230 228 228 210 205 197 198 188 192 197 203 198 194 193 192 191 185 180 176 179 171 167 167 179 192 201 217 226 209 203
304 326 325 321 321 319 319 278 267 263 244 237 237 233 216 225 226 207 199 201 203 195 193 203 204 199 197 198 195 190 181 183 185 180 172 154 173 197 209 206 207 211 215
328 334 320 321 319 320 321 285 253 252 241 239 232 225 218 218 208 208 203 193 192 185 186 193 210 206 202 200 198 192 190 186 186 198 179 160 185 183 199 215 220 218 225
330 329 325 323 323 324 318 301 269 245 244 239 233 224 213 211 214 208 201 202 203 196 196 191 199 203 199 199 199 197 198 197 191 193 197 195 192 176 183 207 222 227 237
339 333 327 327 325 325 324 313 280 258 243 238 234 226 224 214 208 204 201 201 196 197 187 187 194 196 205 205 203 200 202 203 202 198 192 194 185 185 185 194 206 217 227
344 333 331 329 332 331 329 321 306 251 239 235 228 232 223 220 206 204 199 198 199 197 191 190 189 188 204 204 203 205 203 203 204 200 200 203 192 194 196 190 199 209 219
349 341 340 340 335 333 334 328 323 255 240 231 218 229 231 228 221 215 208 204 202 197 193 194 184 191 198 202 200 200 201 201 202 203 204 208 217 222 214 203 176 178 194
351 349 345 337 336 335 329 332 312 275 228 223 222 242 232 232 233 224 211 209 200 190 186 188 182 183 186 192 196 199 197 198 201 205 207 212 208 202 201 193 191 186 195
349 337 335 330 333 338 326 325 293 278 254 234 236 224 234 232 228 218 212 199 192 192 185 183 181 184 182 193 195 197 196 194 195 200 198 196 189 188 194 207 216 203 195
347 333 330 327 328 332 332 303 300 277 257 243 238 239 237 229 224 222 202 191 187 189 187 183 183 184 186 189 191 192 192 190 180 180 181 182 187 194 199 195 205 210 217
343 333 334 329 323 325 325 308 295 279 269 245 247 245 227 224 220 210 194 187 188 176 185 182 182 185 185 184 188 186 180 182 176 174 182 187 191 189 196 230 228 231 234
336 344 339 347 340 326 319 302 303 288 275 252 245 232 231 221 209 200 189 186 184 179 185 184 188 188 187 183 184 177 171 177 179 182 190 194 191 202 210 207 204 229 255
344 351 348 343 339 333 315 299 301 302 282 248 236 228 217 199 181 179 181 177 177 183 186 189 185 182 179 174 172 175 173 178 180 183 179 169 199 199 189 199 226 274 290
339 347 346 349 347 333 312 299 257 244 276 249 226 215 200 183 185 177 178 174 180 180 189 186 182 176 174 172 171 174 178 189 182 166 177 184 179 184 185 230 300 295 294
328 340 338 346 350 347 329 310 232 219 244 238 216 202 187 189 177 178 176 177 187 185 184 177 172 172 169 171 177 199 191 178 164 182 181 172 168 196 249 277 287 298 303
321 338 329 341 350 349 343 333 231 207 222 229 204 191 190 182 181 184 183 184 177 176 175 171 170 168 175 186 171 160 149 163 177 180 174 168 178 215 270 293 315 316 305
326 328 329 338 349 348 353 353 201 191 199 226 199 193 193 180 183 188 181 168 172 184 174 167 172 170 173 163 144 150 155 168 169 173 167 172 184 230 303 302 314 329 336
328 324 327 343 349 343 340 17 46 191 184 203 202 193 195 189 179 176 182 182 182 174 170 167 169 175 150 152 159 156 161 165 165 172 178 173 177 297 308 323 326 322 326
330 330 337 348 348 344 357 358 202 177 189 186 191 187 196 185 171 176 180 183 169 166 163 167 162 145 157 162 164 156 161 167 167 168 160 186 226 338 333 324 326 330 342
332 337 347 356 354 6 15 10 148 168 182 177 182 185 182 183 178 180 170 173 170 163 166 157 151 163 158 156 155 158 165 163 163 170 176 356 336 338 333 340 338 328 329
326 346 355 8 13 29 29 37 114 155 166 170 177 173 174 171 171 171 169 167 160 167 152 150 159 160 162 156 160 158 157 162 161 151 114 335 325 330 340 329 330 335 337
314 342 353 19 31 51 43 45 119 139 154 168 168 163 163 167 173 166 156 156 160 149 152 156 159 161 160 159 153 152 154 148 142 71 19 329 327 324 328 337 336 332 328
320 336 339 18 48 79 64 62 102 131 149 161 163 163 162 159 154 154 155 149 150 155 159 164 162 160 158 154 154 154 143 120 109 274 327 303 300 330 343 336 336 343 344
301 304 328 285 155 156 105 96 92 127 147 150 151 151 151 152 155 154 145 151 156 161 163 166 165 160 159 160 156 155 157 160 166 228 313 334 339 333 331 340 341 332 318
308 269 251 265 214 188 178 156 141 138 135 139 144 152 159 158 157 156 155 152 156 170 169 165 164 162 159 154 152 145 132 132 346 324 309 312 322 340 340 324 312 308 313
306 265 244 243 239 203 209 195 174 166 166 165 164 164 162 158 151 150 153 160 165 160 159 157 158 155 154 152 162 174 182 323 318 308 320 342 338 324 317 316 314 308 315
Wind_Speed_850mb
10 25 37 44 45 44 44 35 33 35 43 44 46 42 50 50 78 75 88 74 52 52 56 54 57 62 62 62 60 59 63 61 58 60 47 37 28 25 23 20 19 19 19
18 26 32 47 57 61 64 41 32 34 46 50 53 46 49 57 73 70 79 76 75 67 58 50 54 59 61 61 61 63 69 65 63 63 55 33 29 25 26 28 26 24 20
22 30 32 45 57 68 58 32 35 30 47 59 55 46 55 68 66 73 75 77 78 75 64 52 48 54 60 65 64 65 71 73 66 58 36 24 18 36 27 25 23 21 21
30 27 35 46 62 67 44 35 33 34 49 57 56 57 56 67 62 80 84 81 75 73 71 63 58 53 57 63 65 64 64 66 68 63 43 26 24 30 29 35 30 25 23
30 34 40 49 62 50 42 37 33 40 47 55 56 57 54 66 68 80 83 84 80 77 69 61 57 53 59 66 66 63 59 59 60 61 52 31 27 25 22 38 44 35 26
35 32 37 51 57 40 38 35 32 36 45 47 57 51 54 65 74 85 89 87 87 84 84 83 72 67 65 63 62 57 56 55 52 55 45 34 36 34 27 21 42 32 30
36 33 45 48 51 48 36 32 28 24 31 39 57 52 55 59 64 80 86 83 78 78 76 74 72 65 59 53 52 53 53 51 54 51 48 35 29 28 30 22 35 33 28
29 37 46 43 44 45 33 27 22 18 22 38 42 44 58 49 65 77 85 83 86 91 84 73 64 59 51 46 47 50 48 48 51 51 44 40 34 29 21 21 24 24 25
31 42 42 38 40 39 34 30 18 18 23 33 40 43 50 65 69 74 81 81 87 89 76 67 62 59 55 53 54 53 53 50 49 47 39 33 28 25 23 21 20 17 18
34 37 38 36 36 34 31 27 19 17 20 23 31 39 45 59 61 72 81 78 79 80 71 68 63 63 62 62 58 53 49 48 46 41 37 34 28 23 20 17 14 15 13
28 38 41 36 34 33 29 21 23 19 20 20 22 36 56 62 64 70 77 80 80 73 68 66 64 61 61 57 56 54 50 48 46 39 31 28 23 18 13 14 14 7 7
33 35 34 38 37 36 24 20 15 18 19 22 26 36 44 54 62 62 78 78 79 77 71 67 62 62 60 56 56 57 52 46 41 37 32 26 19 14 13 10 4 7 11
29 33 35 42 46 40 26 16 13 12 18 25 29 38 45 47 62 74 71 70 73 70 67 65 64 60 53 53 53 50 49 43 35 27 24 18 17 15 10 8 8 6 12
22 30 35 44 49 41 26 14 9 10 13 18 30 36 44 62 70 65 62 68 67 63 61 58 54 55 59 58 54 48 39 32 29 22 21 21 15 11 7 6 5 9 13
21 31 41 46 52 40 22 12 8 12 12 24 27 43 56 63 58 63 65 62 66 70 64 61 59 60 57 50 40 35 28 24 24 27 20 16 12 5 3 7 9 12 14
17 31 40 43 48 40 23 12 8 8 14 18 42 49 64 64 56 59 59 64 58 59 61 59 59 58 49 40 38 34 34 32 25 21 19 15 9 6 6 8 10 12 12
13 25 39 39 43 37 23 11 6 16 14 24 42 51 62 68 66 63 52 44 46 49 60 61 55 49 47 43 41 36 31 28 25 19 13 9 7 3 4 9 11 14 19
18 29 36 35 41 36 16 7 9 21 19 25 38 53 61 66 81 61 64 54 54 58 57 57 51 48 48 43 38 34 29 25 21 17 13 7 1 2 7 10 10 12 15
20 25 29 33 42 28 15 6 2 9 33 35 41 50 57 73 75 57 57 69 67 68 68 57 56 51 49 41 34 30 27 23 19 13 6 3 3 3 7 9 11 13 15
21 19 25 34 35 23 16 10 4 12 29 36 42 49 58 67 75 72 78 60 68 77 68 61 50 47 44 37 30 28 24 19 15 12 7 0 5 8 10 12 13 13 13
18 16 18 25 29 23 17 8 8 17 22 31 37 43 50 61 71 78 79 78 80 63 62 59 53 44 38 36 30 26 20 15 10 6 2 3 6 10 12 11 11 16 18
14 13 12 17 20 20 20 15 11 17 23 29 39 55 66 63 58 77 85 77 66 67 62 57 51 43 38 32 27 20 15 10 5 2 1 4 9 10 11 13 16 18 15
17 14 8 8 12 12 21 22 16 19 24 32 42 54 56 69 80 75 70 67 61 64 61 56 50 44 35 28 22 16 11 6 2 1 4 7 8 10 12 15 16 17 21
17 19 9 7 3 8 12 17 27 24 29 36 47 60 70 71 63 64 66 64 58 54 50 47 43 38 34 27 21 15 10 7 4 2 4 8 11 13 15 17 19 20 20
22 19 12 12 14 14 13 19 22 32 49 56 55 51 52 59 64 61 59 54 47 38 35 35 32 31 30 25 18 10 5 2 2 6 8 9 10 14 17 18 19 20 22
27 22 18 15 22 23 21 22 30 32 34 42 44 47 53 57 57 55 50 37 31 31 28 27 25 27 21 17 14 11 5 2 6 8 9 11 14 15 18 21 21 18 17
Wind_Direction_850mb
316 308 316 315 317 316 302 287 294 248 249 238 233 230 228 228 210 205 197 198 188 192 197 203 198 194 193 192 191 185 180 176 179 171 167 167 179 192 201 217 226 209 203
304 326 325 321 321 319 319 278 267 263 244 237 237 233 216 225 226 207 199 201 203 195 193 203 204 199 197 198 195 190 181 183 185 180 172 154 173 197 209 206 207 211 215
328 334 320 321 319 320 321 285 253 252 241 239 232 225 218 218 208 208 203 193 192 185 186 193 210 206 202 200 198 192 190 186 186 198 179 160 185 183 199 215 220 218 225
330 329 325 323 323 324 318 301 269 245 244 239 233 224 213 211 214 208 201 202 203 196 196 191 199 203 199 199 199 197 198 197 191 193 197 195 192 176 183 207 222 227 237
339 333 327 327 325 325 324 313 280 258 243 238 234 226 224 214 208 204 201 201 196 197 187 187 194 196 205 205 203 200 202 203 202 198 192 194 185 185 185 194 206 217 227
344 333 331 329 332 331 329 321 306 251 239 235 228 232 223 220 206 204 199 198 199 197 191 190 189 188 204 204 203 205 203 203 204 200 200 203 192 194 196 190 199 209 219
349 341 340 340 335 333 334 328 323 255 240 231 218 229 231 228 221 215 208 204 202 197 193 194 184 191 198 202 200 200 201 201 202 203 204 208 217 222 214 203 176 178 194
351 349 345 337 336 335 329 332 312 275 228 223 222 242 232 232 233 224 211 209 200 190 186 188 182 183 186 192 196 199 197 198 201 205 207 212 208 202 201 193 191 186 195
349 337 335 330 333 338 326 325 293 278 254 234 236 224 234 232 228 218 212 199 192 192 185 183 181 184 182 193 195 197 196 194 195 200 198 196 189 188 194 207 216 203 195
347 333 330 327 328 332 332 303 300 277 257 243 238 239 237 229 224 222 202 191 187 189 187 183 183 184 186 189 191 192 192 190 180 180 181 182 187 194 199 195 205 210 217
343 333 334 329 323 325 325 308 295 279 269 245 247 245 227 224 220 210 194 187 188 176 185 182 182 185 185 184 188 186 180 182 176 174 182 187 191 189 196 230 228 231 234
336 344 339 347 340 326 319 302 303 288 275 252 245 232 231 221 209 200 189 186 184 179 185 184 188 188 187 183 184 177 171 177 179 182 190 194 191 202 210 207 204 229 255
344 351 348 343 339 333 315 299 301 302 282 248 236 228 217 199 181 179 181 177 177 183 186 189 185 182 179 174 172 175 173 178 180 183 179 169 199 199 189 199 226 274 290
339 347 346 349 347 333 312 299 257 244 276 249 226 215 200 183 185 177 178 174 180 180 189 186 182 176 174 172 171 174 178 189 182 166 177 184 179 184 185 230 300 295 294
328 340 338 346 350 347 329 310 232 219 244 238 216 202 187 189 177 178 176 177 187 185 184 177 172 172 169 171 177 199 191 178 164 182 181 172 168 196 249 277 287 298 303
321 338 329 341 350 349 343 333 231 207 222 229 204 191 190 182 181 184 183 184 177 176 175 171 170 168 175 186 171 160 149 163 177 180 174 168 178 215 270 293 315 316 305
326 328 329 338 349 348 353 353 201 191 199 226 199 193 193 180 183 188 181 168 172 184 174 167 172 170 173 163 144 150 155 168 169 173 167 172 184 230 303 302 314 329 336
328 324 327 343 349 343 340 17 46 191 184 203 202 193 195 189 179 176 182 182 182 174 170 167 169 175 150 152 159 156 161 165 165 172 178 173 177 297 308 323 326 322 326
330 330 337 348 348 344 357 358 202 177 189 186 191 187 196 185 171 176 180 183 169 166 163 167 162 145 157 162 164 156 161 167 167 168 160 186 226 338 333 324 326 330 342
332 337 347 356 354 6 15 10 148 168 182 177 182 185 182 183 178 180 170 173 170 163 166 157 151 163 158 156 155 158 165 163 163 170 176 356 336 338 333 340 338 328 329
326 346 355 8 13 29 29 37 114 155 166 170 177 173 174 171 171 171 169 167 160 167 152 150 159 160 162 156 160 158 157 162 161 151 114 335 325 330 340 329 330 335 337
314 342 353 19 31 51 43 45 119 139 154 168 168 163 163 167 173 166 156 156 160 149 152 156 159 161 160 159 153 152 154 148 142 71 19 329 327 324 328 337 336 332 328
320 336 339 18 48 79 64 62 102 131 149 161 163 163 162 159 154 154 155 149 150 155 159 164 162 160 158 154 154 154 143 120 109 274 327 303 300 330 343 336 336 343 344
301 304 328 285 155 156 105 96 92 127 147 150 151 151 151 152 155 154 145 151 156 161 163 166 165 160 159 160 156 155 157 160 166 228 313 334 339 333 331 340 341 332 318
308 269 251 265 214 188 178 156 141 138 135 139 144 152 159 158 157 156 155 152 156 170 169 165 164 162 159 154 152 145 132 132 346 324 309 312 322 340 340 324 312 308 313
306 265 244 243 239 203 209 195 174 166 166 165 164 164 162 158 151 150 153 160 165 160 159 157 158 155 154 152 162 174 182 323 318 308 320 342 338 324 317 316 314 308 315